Погода в Кокпектах

Казахстан     48°45′15″N   82°23′08″E
темп.,
°C
ветер,
м/с
пор.,
м/с
влажн.,
%
обл.,
%
осадки,
мм/ч
давл.,
гПа
погр.,
м
5 августа, чт
чт500:00+19с333917 0.0 100724
03:00+17ссз22465 0.0 100711
06:00+19ссз334444 0.0 100740
09:00+22сз3539100 0.1 1007265
12:00+24сз663885 0.2 10071114
15:00+26сз773220 0.1 10061957
18:00+23ссз694390 0.1 1007715
21:00+18сз48572 0.0 1009148
6 августа, пт
пт600:00+16сз33620 0.0 100929
03:00+15сз346410 0.0 100847
06:00+15сз35655 0.0 100989
09:00+23ссз56374 0.0 10091782
12:00+26сз552895 0.0 10082699
15:00+26ссз762892 0.0 10082476
18:00+25с76302 0.0 10082340
21:00+19ссз49500 0.0 1009208
7 августа, сб
сб700:00+17сз46590 0.0 100985
03:00+15зсз34680 0.0 100858
06:00+15сз36690 0.0 1009124
09:00+25с56310 0.0 10091635
12:00+28ссз66240 0.0 10082518
15:00+30ссз66200 0.0 10062879
18:00+29сз672129 0.0 10063027
21:00+21с511390 0.0 1008211
8 августа, вс
вс800:00+18сз33490 0.0 100840
03:00+18сз46510 0.0 100980
06:00+18сз47530 0.0 1010124
09:00+26сз68340 0.0 10091466
12:00+30сз66230 0.0 10082334
15:00+32сз77180 0.0 10072858
18:00+31ссз7719100 0.0 10072605
21:00+23сз44340 0.0 101038
9 августа, пн
пн900:00+20ссз224435 0.0 101017
03:00+19сз234635 0.0 101015
06:00+20сз334591 0.0 101032
09:00+28сз233067 0.0 1009863
12:00+28с343357 0.4 1009801
15:00+32сз452614 0.0 10072219
18:00+31с432736 0.0 10051613
21:00+21ссз6116275 0.1 1007190